User: anonymous   Login
Location: Munkebjergskolens Observatorium
(55.3864°N, 10.3987°E)
Time: 16:34:14
(UTC+01:00)
Language:

AO-92 - Orbit

View from above orbital plane
View from above orbital plane
View from above satellite
View from above satellite

Ground track
Ground track

The orbit data is extracted from the following two-line orbital elements,

1 43137U 18004AC  23078.76585336  .00034239  00000-0  87150-3 0  9999
2 43137  97.3364 157.3866 0007062 107.6064 252.5954 15.39481380288526
Epoch (UTC): 19 March 2023 18:22:49
Eccentricity: 0.0007062
inclination: 97.3364°
perigee height: 443 km
apogee height: 452 km
right ascension of ascending node: 157.3866°
argument of perigee: 107.6064°
revolutions per day: 15.39481380
mean anomaly at epoch: 252.5954°
orbit number at epoch: 28852

The dashed part of the orbit path shows where the satellite is in the earth's shadow,  

DLR